QPF
0.00 0.00 0.00 0.00 0.00 0.00 0.00 0.00 0.00 0.00 0.00 0.00 0.01 0.02 0.03 0.05 0.07 0.09 0.09 0.10 0.08 0.06 0.04 0.02 0.01 0.01 0.00 0.00 0.00 0.00 0.00 0.00 0.00 0.00 0.00 0.01 0.01 0.00 0.00 0.01 0.03 0.05 0.05
0.00 0.00 0.00 0.00 0.00 0.00 0.00 0.00 0.00 0.00 0.00 0.00 0.00 0.00 0.01 0.03 0.06 0.09 0.11 0.12 0.11 0.10 0.08 0.06 0.03 0.02 0.01 0.01 0.00 0.00 0.00 0.00 0.00 0.00 0.00 0.01 0.01 0.01 0.01 0.01 0.02 0.04 0.04
0.00 0.00 0.00 0.00 0.00 0.00 0.00 0.00 0.00 0.00 0.00 0.00 0.00 0.00 0.00 0.01 0.02 0.04 0.08 0.12 0.14 0.14 0.12 0.10 0.07 0.05 0.02 0.02 0.01 0.00 0.00 0.00 0.00 0.00 0.01 0.02 0.02 0.03 0.02 0.02 0.02 0.02 0.03
0.00 0.00 0.00 0.00 0.00 0.00 0.00 0.00 0.00 0.00 0.00 0.00 0.00 0.00 0.00 0.00 0.00 0.01 0.02 0.05 0.09 0.12 0.14 0.13 0.11 0.08 0.05 0.03 0.02 0.01 0.00 0.00 0.00 0.01 0.01 0.03 0.04 0.05 0.03 0.03 0.03 0.03 0.02
0.00 0.00 0.00 0.00 0.00 0.00 0.00 0.00 0.00 0.00 0.00 0.00 0.00 0.00 0.00 0.00 0.00 0.00 0.00 0.01 0.02 0.05 0.09 0.11 0.13 0.11 0.08 0.05 0.03 0.02 0.01 0.00 0.00 0.01 0.02 0.03 0.05 0.07 0.06 0.03 0.03 0.03 0.03
0.00 0.00 0.00 0.00 0.00 0.00 0.00 0.00 0.00 0.00 0.00 0.00 0.00 0.00 0.00 0.00 0.00 0.00 0.00 0.00 0.00 0.01 0.03 0.06 0.09 0.13 0.10 0.07 0.04 0.02 0.01 0.00 0.00 0.01 0.02 0.03 0.04 0.03 0.03 0.03 0.03 0.02 0.04
0.00 0.00 0.01 0.01 0.01 0.01 0.01 0.01 0.01 0.01 0.01 0.00 0.00 0.00 0.00 0.00 0.00 0.00 0.00 0.00 0.00 0.00 0.01 0.03 0.05 0.07 0.09 0.07 0.05 0.03 0.01 0.00 0.00 0.00 0.01 0.02 0.02 0.02 0.03 0.03 0.03 0.03 0.02
0.00 0.01 0.01 0.02 0.03 0.03 0.04 0.03 0.03 0.02 0.02 0.02 0.01 0.00 0.00 0.00 0.00 0.00 0.00 0.00 0.00 0.00 0.01 0.02 0.03 0.04 0.06 0.07 0.05 0.03 0.01 0.00 0.00 0.00 0.01 0.02 0.03 0.03 0.04 0.06 0.06 0.06 0.06
0.01 0.01 0.02 0.03 0.05 0.06 0.07 0.06 0.06 0.05 0.04 0.04 0.03 0.01 0.00 0.00 0.00 0.00 0.00 0.00 0.00 0.00 0.00 0.02 0.04 0.05 0.06 0.06 0.05 0.03 0.02 0.01 0.00 0.01 0.02 0.04 0.07 0.10 0.09 0.08 0.09 0.08 0.08
0.01 0.02 0.03 0.05 0.08 0.10 0.11 0.11 0.10 0.08 0.07 0.05 0.04 0.02 0.01 0.00 0.00 0.00 0.00 0.00 0.00 0.00 0.00 0.02 0.06 0.07 0.08 0.07 0.05 0.04 0.02 0.01 0.00 0.01 0.04 0.07 0.08 0.11 0.11 0.07 0.06 0.06 0.06
0.01 0.02 0.03 0.05 0.08 0.11 0.13 0.15 0.14 0.12 0.08 0.05 0.03 0.02 0.00 0.00 0.00 0.00 0.00 0.00 0.00 0.00 0.00 0.02 0.05 0.09 0.11 0.10 0.07 0.04 0.02 0.01 0.01 0.01 0.04 0.08 0.10 0.11 0.10 0.08 0.06 0.04 0.03
0.01 0.02 0.02 0.04 0.06 0.08 0.10 0.12 0.15 0.16 0.14 0.09 0.05 0.02 0.01 0.00 0.00 0.00 0.00 0.00 0.00 0.00 0.00 0.02 0.08 0.12 0.16 0.16 0.12 0.07 0.04 0.02 0.01 0.02 0.03 0.06 0.08 0.09 0.10 0.09 0.08 0.06 0.03
0.01 0.02 0.03 0.04 0.05 0.07 0.08 0.10 0.11 0.11 0.11 0.09 0.06 0.03 0.01 0.00 0.00 0.00 0.00 0.00 0.00 0.00 0.00 0.03 0.12 0.19 0.24 0.25 0.20 0.13 0.07 0.04 0.02 0.02 0.02 0.03 0.04 0.05 0.05 0.05 0.06 0.05 0.03
0.02 0.02 0.03 0.04 0.06 0.07 0.09 0.10 0.11 0.11 0.09 0.07 0.04 0.02 0.01 0.00 0.00 0.00 0.00 0.00 0.00 0.00 0.01 0.03 0.13 0.26 0.36 0.39 0.32 0.20 0.10 0.06 0.03 0.03 0.02 0.02 0.03 0.03 0.03 0.02 0.03 0.03 0.03
0.02 0.03 0.03 0.04 0.05 0.06 0.07 0.09 0.11 0.11 0.10 0.07 0.04 0.02 0.01 0.00 0.00 0.00 0.00 0.00 0.00 0.00 0.00 0.04 0.14 0.32 0.50 0.55 0.45 0.28 0.15 0.09 0.05 0.03 0.03 0.02 0.02 0.02 0.02 0.02 0.02 0.02 0.01
0.03 0.03 0.03 0.03 0.03 0.04 0.05 0.06 0.06 0.07 0.07 0.05 0.03 0.01 0.00 0.00 0.00 0.00 0.00 0.00 0.00 0.00 0.01 0.03 0.16 0.35 0.56 0.63 0.53 0.34 0.18 0.09 0.06 0.04 0.03 0.02 0.02 0.02 0.02 0.01 0.02 0.01 0.01
0.02 0.02 0.02 0.02 0.01 0.02 0.02 0.03 0.04 0.04 0.04 0.04 0.03 0.01 0.01 0.00 0.00 0.00 0.00 0.00 0.00 0.01 0.02 0.03 0.15 0.36 0.56 0.65 0.55 0.35 0.18 0.08 0.05 0.04 0.04 0.03 0.02 0.02 0.02 0.02 0.01 0.01 0.01
0.01 0.01 0.01 0.01 0.01 0.01 0.01 0.01 0.01 0.01 0.02 0.02 0.01 0.01 0.01 0.00 0.00 0.00 0.00 0.00 0.00 0.01 0.03 0.04 0.13 0.36 0.54 0.61 0.51 0.34 0.19 0.09 0.04 0.03 0.03 0.03 0.02 0.01 0.01 0.01 0.01 0.00 0.00
0.01 0.00 0.00 0.00 0.01 0.00 0.00 0.00 0.00 0.01 0.01 0.00 0.01 0.01 0.01 0.01 0.01 0.01 0.01 0.01 0.01 0.03 0.04 0.05 0.13 0.33 0.49 0.54 0.44 0.30 0.18 0.08 0.03 0.02 0.01 0.02 0.02 0.01 0.01 0.00 0.00 0.00 0.00
0.01 0.01 0.00 0.00 0.00 0.01 0.00 0.00 0.01 0.01 0.01 0.00 0.01 0.00 0.00 0.00 0.00 0.01 0.02 0.04 0.04 0.04 0.04 0.07 0.13 0.26 0.36 0.41 0.34 0.22 0.14 0.07 0.02 0.01 0.00 0.01 0.01 0.01 0.01 0.00 0.00 0.00 0.00
0.01 0.01 0.00 0.00 0.00 0.00 0.00 0.00 0.00 0.01 0.02 0.01 0.01 0.01 0.01 0.01 0.02 0.04 0.05 0.05 0.05 0.05 0.05 0.06 0.10 0.17 0.22 0.25 0.21 0.13 0.08 0.04 0.01 0.00 0.00 0.00 0.00 0.00 0.00 0.00 0.00 0.00 0.00
0.01 0.01 0.00 0.00 0.00 0.00 0.00 0.00 0.00 0.00 0.01 0.02 0.01 0.01 0.01 0.02 0.04 0.06 0.07 0.07 0.06 0.05 0.04 0.05 0.07 0.10 0.11 0.12 0.09 0.05 0.03 0.02 0.01 0.00 0.00 0.00 0.00 0.00 0.00 0.00 0.00 0.00 0.00
0.02 0.01 0.01 0.00 0.00 0.00 0.00 0.00 0.00 0.00 0.01 0.02 0.02 0.02 0.03 0.05 0.05 0.05 0.06 0.07 0.06 0.05 0.04 0.04 0.04 0.05 0.05 0.04 0.03 0.02 0.01 0.00 0.00 0.00 0.00 0.00 0.00 0.00 0.00 0.00 0.00 0.00 0.00
0.02 0.02 0.01 0.00 0.00 0.00 0.00 0.00 0.00 0.00 0.01 0.02 0.03 0.04 0.04 0.05 0.05 0.05 0.05 0.05 0.05 0.04 0.03 0.03 0.02 0.02 0.02 0.01 0.01 0.00 0.00 0.00 0.00 0.00 0.00 0.00 0.00 0.00 0.00 0.00 0.00 0.00 0.00
0.02 0.02 0.01 0.01 0.00 0.00 0.00 0.00 0.00 0.00 0.01 0.02 0.03 0.03 0.03 0.04 0.04 0.04 0.04 0.05 0.05 0.04 0.03 0.01 0.01 0.01 0.00 0.00 0.00 0.00 0.00 0.00 0.00 0.00 0.00 0.00 0.00 0.00 0.00 0.00 0.00 0.00 0.00
0.01 0.01 0.01 0.01 0.00 0.00 0.00 0.00 0.00 0.00 0.00 0.00 0.01 0.02 0.02 0.02 0.02 0.03 0.04 0.04 0.05 0.04 0.02 0.01 0.01 0.00 0.00 0.00 0.00 0.00 0.00 0.00 0.00 0.00 0.00 0.00 0.00 0.00 0.00 0.00 0.00 0.00 0.00
MSLP
1010.04 1009.77 1009.57 1009.43 1009.31 1009.21 1009.12 1009.04 1008.98 1008.94 1008.93 1008.93 1008.94 1008.93 1008.88 1008.79 1008.66 1008.50 1008.31 1008.13 1007.98 1007.88 1007.84 1007.87 1007.96 1008.09 1008.27 1008.46 1008.67 1008.88 1009.09 1009.29 1009.48 1009.65 1009.80 1009.92 1010.01 1010.05 1010.06 1010.04 1010.01 1009.98 1009.98
1009.97 1009.61 1009.29 1009.01 1008.76 1008.53 1008.33 1008.18 1008.08 1008.03 1008.04 1008.09 1008.15 1008.22 1008.25 1008.24 1008.17 1008.06 1007.90 1007.74 1007.58 1007.45 1007.38 1007.36 1007.40 1007.50 1007.65 1007.83 1008.05 1008.30 1008.56 1008.84 1009.13 1009.41 1009.68 1009.93 1010.14 1010.31 1010.43 1010.52 1010.57 1010.62 1010.68
1010.01 1009.53 1009.08 1008.64 1008.22 1007.83 1007.50 1007.24 1007.07 1006.99 1007.00 1007.09 1007.22 1007.36 1007.48 1007.55 1007.57 1007.52 1007.41 1007.28 1007.14 1007.01 1006.91 1006.87 1006.88 1006.94 1007.06 1007.24 1007.46 1007.72 1008.02 1008.35 1008.71 1009.08 1009.45 1009.80 1010.13 1010.43 1010.68 1010.90 1011.08 1011.23 1011.38
1010.05 1009.47 1008.87 1008.27 1007.67 1007.13 1006.65 1006.28 1006.03 1005.91 1005.92 1006.03 1006.22 1006.43 1006.63 1006.78 1006.88 1006.90 1006.86 1006.77 1006.65 1006.53 1006.44 1006.38 1006.37 1006.42 1006.52 1006.68 1006.89 1007.15 1007.45 1007.80 1008.19 1008.61 1009.04 1009.48 1009.92 1010.33 1010.71 1011.07 1011.39 1011.69 1011.96
1010.01 1009.33 1008.61 1007.86 1007.12 1006.42 1005.82 1005.35 1005.03 1004.88 1004.88 1005.02 1005.24 1005.51 1005.78 1006.00 1006.16 1006.25 1006.26 1006.21 1006.13 1006.04 1005.95 1005.90 1005.89 1005.92 1006.01 1006.14 1006.33 1006.56 1006.85 1007.18 1007.57 1007.99 1008.45 1008.94 1009.45 1009.96 1010.47 1010.97 1011.44 1011.89 1012.31
1009.80 1009.06 1008.24 1007.39 1006.53 1005.74 1005.05 1004.51 1004.14 1003.97 1003.97 1004.12 1004.37 1004.68 1004.99 1005.26 1005.47 1005.60 1005.65 1005.64 1005.60 1005.53 1005.47 1005.43 1005.42 1005.45 1005.52 1005.63 1005.78 1005.97 1006.21 1006.50 1006.85 1007.25 1007.70 1008.21 1008.77 1009.35 1009.96 1010.58 1011.20 1011.81 1012.39
1009.40 1008.62 1007.75 1006.84 1005.93 1005.08 1004.35 1003.78 1003.40 1003.22 1003.22 1003.38 1003.65 1003.97 1004.30 1004.60 1004.83 1004.98 1005.07 1005.09 1005.07 1005.03 1005.00 1004.97 1004.97 1005.00 1005.05 1005.13 1005.24 1005.38 1005.56 1005.79 1006.08 1006.43 1006.86 1007.36 1007.93 1008.57 1009.26 1009.98 1010.73 1011.48 1012.22
1008.82 1008.02 1007.14 1006.22 1005.31 1004.46 1003.73 1003.17 1002.80 1002.63 1002.64 1002.80 1003.07 1003.39 1003.71 1004.01 1004.24 1004.41 1004.51 1004.56 1004.57 1004.56 1004.55 1004.54 1004.55 1004.58 1004.61 1004.66 1004.73 1004.82 1004.94 1005.10 1005.33 1005.63 1006.01 1006.49 1007.07 1007.73 1008.48 1009.28 1010.12 1010.99 1011.85
1008.10 1007.32 1006.46 1005.58 1004.70 1003.89 1003.20 1002.67 1002.32 1002.16 1002.18 1002.33 1002.58 1002.88 1003.19 1003.47 1003.70 1003.87 1003.98 1004.05 1004.08 1004.10 1004.12 1004.13 1004.15 1004.18 1004.20 1004.23 1004.26 1004.30 1004.37 1004.48 1004.66 1004.92 1005.27 1005.74 1006.31 1006.99 1007.76 1008.61 1009.51 1010.45 1011.39
1007.33 1006.58 1005.77 1004.94 1004.12 1003.37 1002.74 1002.25 1001.93 1001.78 1001.78 1001.91 1002.13 1002.40 1002.68 1002.94 1003.16 1003.33 1003.46 1003.55 1003.62 1003.67 1003.71 1003.74 1003.78 1003.80 1003.81 1003.82 1003.82 1003.84 1003.88 1003.97 1004.12 1004.37 1004.72 1005.18 1005.76 1006.44 1007.23 1008.10 1009.02 1009.99 1010.96
1006.58 1005.87 1005.12 1004.35 1003.60 1002.92 1002.33 1001.88 1001.58 1001.42 1001.40 1001.50 1001.67 1001.90 1002.15 1002.38 1002.60 1002.78 1002.93 1003.06 1003.16 1003.24 1003.31 1003.37 1003.41 1003.43 1003.44 1003.43 1003.42 1003.43 1003.47 1003.57 1003.74 1004.00 1004.37 1004.86 1005.45 1006.15 1006.94 1007.81 1008.72 1009.66 1010.62
1005.91 1005.24 1004.54 1003.84 1003.16 1002.53 1001.99 1001.56 1001.25 1001.07 1001.01 1001.06 1001.19 1001.37 1001.58 1001.79 1002.01 1002.21 1002.40 1002.56 1002.70 1002.82 1002.92 1002.99 1003.04 1003.06 1003.06 1003.05 1003.05 1003.07 1003.14 1003.27 1003.48 1003.80 1004.23 1004.76 1005.39 1006.11 1006.90 1007.75 1008.62 1009.52 1010.41
1005.35 1004.72 1004.07 1003.42 1002.80 1002.22 1001.70 1001.28 1000.96 1000.74 1000.63 1000.61 1000.68 1000.81 1000.99 1001.20 1001.42 1001.65 1001.87 1002.07 1002.26 1002.41 1002.54 1002.62 1002.67 1002.69 1002.69 1002.68 1002.69 1002.74 1002.84 1003.04 1003.33 1003.72 1004.22 1004.83 1005.51 1006.26 1007.05 1007.87 1008.70 1009.52 1010.32
1004.90 1004.30 1003.70 1003.10 1002.53 1001.98 1001.49 1001.06 1000.71 1000.45 1000.29 1000.21 1000.21 1000.30 1000.45 1000.64 1000.87 1001.12 1001.38 1001.62 1001.84 1002.03 1002.17 1002.26 1002.31 1002.32 1002.31 1002.31 1002.33 1002.42 1002.58 1002.85 1003.22 1003.71 1004.30 1004.98 1005.72 1006.51 1007.31 1008.10 1008.87 1009.61 1010.32
1004.52 1003.96 1003.41 1002.87 1002.34 1001.83 1001.35 1000.92 1000.55 1000.25 1000.03 999.89 999.84 999.88 1000.00 1000.18 1000.42 1000.69 1000.97 1001.24 1001.49 1001.69 1001.83 1001.92 1001.96 1001.96 1001.95 1001.95 1002.00 1002.12 1002.34 1002.68 1003.13 1003.71 1004.39 1005.14 1005.94 1006.76 1007.56 1008.33 1009.06 1009.73 1010.35
1004.20 1003.68 1003.18 1002.69 1002.21 1001.74 1001.29 1000.87 1000.49 1000.16 999.90 999.72 999.63 999.63 999.71 999.88 1000.11 1000.38 1000.67 1000.96 1001.21 1001.41 1001.55 1001.63 1001.65 1001.64 1001.62 1001.63 1001.70 1001.86 1002.13 1002.53 1003.06 1003.70 1004.45 1005.26 1006.10 1006.94 1007.75 1008.50 1009.19 1009.81 1010.38
1003.89 1003.41 1002.96 1002.53 1002.11 1001.69 1001.28 1000.88 1000.51 1000.17 999.89 999.69 999.57 999.54 999.60 999.75 999.96 1000.22 1000.50 1000.77 1001.01 1001.20 1001.33 1001.39 1001.40 1001.38 1001.36 1001.38 1001.47 1001.66 1001.97 1002.42 1002.99 1003.69 1004.47 1005.32 1006.18 1007.03 1007.84 1008.58 1009.24 1009.83 1010.36
1003.57 1003.13 1002.73 1002.36 1001.99 1001.63 1001.28 1000.92 1000.58 1000.27 999.99 999.79 999.66 999.61 999.65 999.77 999.96 1000.19 1000.44 1000.68 1000.90 1001.06 1001.16 1001.21 1001.21 1001.20 1001.19 1001.22 1001.34 1001.55 1001.90 1002.37 1002.98 1003.69 1004.49 1005.34 1006.20 1007.04 1007.83 1008.56 1009.21 1009.79 1010.31
1003.23 1002.82 1002.46 1002.14 1001.83 1001.54 1001.24 1000.94 1000.65 1000.38 1000.14 999.95 999.83 999.78 999.80 999.90 1000.05 1000.25 1000.45 1000.66 1000.83 1000.96 1001.05 1001.08 1001.09 1001.08 1001.09 1001.16 1001.30 1001.55 1001.92 1002.42 1003.03 1003.74 1004.53 1005.35 1006.19 1007.00 1007.77 1008.48 1009.12 1009.70 1010.24
1002.88 1002.48 1002.15 1001.86 1001.60 1001.36 1001.13 1000.90 1000.67 1000.46 1000.27 1000.12 1000.02 999.98 1000.00 1000.07 1000.19 1000.34 1000.51 1000.66 1000.79 1000.89 1000.96 1000.99 1001.01 1001.03 1001.07 1001.18 1001.37 1001.66 1002.05 1002.56 1003.17 1003.86 1004.61 1005.40 1006.19 1006.97 1007.70 1008.39 1009.03 1009.62 1010.17
1002.55 1002.15 1001.81 1001.54 1001.31 1001.11 1000.93 1000.76 1000.60 1000.45 1000.33 1000.23 1000.17 1000.15 1000.18 1000.24 1000.33 1000.44 1000.56 1000.67 1000.76 1000.83 1000.88 1000.91 1000.95 1001.01 1001.10 1001.26 1001.50 1001.83 1002.26 1002.78 1003.38 1004.05 1004.77 1005.51 1006.25 1006.97 1007.67 1008.33 1008.96 1009.55 1010.11
1002.29 1001.85 1001.49 1001.21 1000.98 1000.80 1000.65 1000.53 1000.43 1000.35 1000.29 1000.26 1000.25 1000.26 1000.30 1000.36 1000.43 1000.51 1000.59 1000.65 1000.71 1000.76 1000.80 1000.84 1000.91 1001.00 1001.15 1001.37 1001.67 1002.04 1002.50 1003.04 1003.64 1004.29 1004.97 1005.66 1006.35 1007.03 1007.69 1008.32 1008.93 1009.51 1010.08
1002.13 1001.64 1001.25 1000.93 1000.68 1000.49 1000.36 1000.27 1000.21 1000.19 1000.19 1000.21 1000.25 1000.30 1000.37 1000.43 1000.50 1000.55 1000.60 1000.63 1000.66 1000.68 1000.72 1000.77 1000.86 1001.00 1001.20 1001.48 1001.83 1002.25 1002.75 1003.30 1003.91 1004.54 1005.19 1005.85 1006.49 1007.13 1007.74 1008.34 1008.92 1009.48 1010.04
1002.11 1001.57 1001.12 1000.75 1000.47 1000.26 1000.11 1000.03 1000.00 1000.02 1000.06 1000.14 1000.22 1000.32 1000.40 1000.48 1000.54 1000.59 1000.61 1000.62 1000.62 1000.63 1000.65 1000.72 1000.82 1001.00 1001.24 1001.56 1001.96 1002.42 1002.95 1003.53 1004.13 1004.76 1005.39 1006.02 1006.63 1007.22 1007.79 1008.35 1008.90 1009.43 1009.96
1002.24 1001.66 1001.16 1000.74 1000.41 1000.16 999.99 999.90 999.88 999.91 999.99 1000.09 1000.22 1000.34 1000.46 1000.55 1000.61 1000.65 1000.66 1000.65 1000.63 1000.62 1000.64 1000.70 1000.82 1001.01 1001.28 1001.63 1002.05 1002.55 1003.10 1003.69 1004.30 1004.92 1005.53 1006.13 1006.71 1007.27 1007.80 1008.32 1008.83 1009.32 1009.80
1002.53 1001.92 1001.38 1000.92 1000.54 1000.25 1000.05 999.93 999.90 999.93 1000.02 1000.14 1000.28 1000.43 1000.56 1000.66 1000.73 1000.77 1000.77 1000.74 1000.71 1000.69 1000.69 1000.75 1000.86 1001.06 1001.34 1001.70 1002.14 1002.65 1003.21 1003.80 1004.40 1005.01 1005.60 1006.17 1006.72 1007.24 1007.73 1008.21 1008.67 1009.11 1009.53
Thickness
5610 5609 5606 5605 5603 5601 5599 5598 5598 5599 5600 5602 5605 5609 5613 5618 5624 5630 5636 5642 5647 5652 5656 5659 5664 5667 5670 5673 5676 5678 5679 5680 5680 5683 5685 5688 5688 5686 5684 5682 5682 5682 5682
5597 5596 5594 5592 5589 5586 5585 5584 5583 5583 5584 5585 5587 5590 5594 5599 5605 5611 5618 5626 5632 5639 5644 5648 5654 5659 5663 5666 5669 5672 5674 5676 5676 5676 5678 5680 5681 5679 5676 5673 5671 5671 5671
5582 5580 5578 5577 5574 5572 5571 5570 5568 5567 5568 5568 5569 5572 5576 5580 5585 5592 5599 5607 5615 5623 5630 5636 5642 5648 5654 5658 5662 5665 5668 5670 5671 5671 5672 5674 5674 5672 5668 5664 5661 5660 5659
5565 5562 5560 5559 5558 5558 5557 5555 5554 5553 5552 5553 5554 5556 5559 5562 5567 5573 5580 5588 5597 5605 5614 5622 5630 5636 5643 5649 5654 5658 5661 5663 5664 5666 5667 5668 5668 5666 5663 5658 5652 5649 5648
5548 5544 5541 5540 5539 5538 5538 5537 5537 5537 5539 5540 5540 5542 5544 5547 5551 5556 5562 5571 5579 5588 5598 5606 5615 5625 5632 5638 5644 5650 5654 5657 5659 5661 5662 5663 5663 5661 5658 5653 5647 5641 5638
5532 5527 5523 5520 5518 5518 5518 5518 5519 5521 5523 5525 5528 5530 5532 5536 5540 5544 5548 5555 5563 5571 5581 5591 5601 5610 5620 5628 5635 5642 5648 5652 5655 5657 5660 5661 5662 5660 5655 5650 5643 5638 5632
5518 5513 5508 5503 5500 5498 5498 5500 5502 5504 5507 5510 5515 5519 5522 5526 5529 5533 5538 5542 5548 5557 5565 5575 5587 5598 5607 5617 5626 5633 5640 5646 5652 5657 5658 5661 5660 5659 5654 5646 5642 5638 5633
5509 5502 5495 5489 5485 5482 5480 5483 5486 5489 5493 5497 5503 5508 5513 5518 5521 5525 5529 5533 5538 5545 5554 5562 5572 5583 5594 5605 5615 5624 5632 5639 5645 5651 5656 5659 5660 5657 5654 5648 5639 5631 5624
5500 5493 5485 5479 5473 5469 5468 5469 5472 5475 5480 5485 5491 5498 5503 5509 5515 5519 5523 5527 5531 5538 5545 5553 5561 5572 5584 5594 5606 5615 5623 5631 5638 5644 5650 5654 5655 5653 5649 5642 5633 5628 5619
5495 5486 5478 5470 5465 5461 5459 5459 5461 5465 5470 5476 5483 5490 5496 5503 5508 5513 5517 5521 5526 5532 5538 5545 5553 5561 5572 5583 5596 5607 5616 5625 5631 5637 5643 5646 5648 5647 5646 5644 5638 5630 5622
5491 5482 5473 5465 5459 5456 5454 5453 5455 5459 5464 5469 5476 5483 5490 5497 5503 5508 5512 5516 5522 5527 5532 5537 5544 5552 5562 5574 5587 5600 5611 5618 5625 5631 5637 5640 5641 5640 5639 5637 5636 5634 5627
5488 5479 5471 5463 5457 5455 5451 5450 5451 5455 5460 5464 5470 5477 5484 5492 5498 5503 5508 5512 5517 5522 5527 5532 5537 5544 5553 5564 5577 5591 5601 5610 5618 5625 5631 5634 5636 5635 5632 5630 5627 5625 5625
5488 5479 5470 5463 5457 5453 5451 5450 5451 5454 5458 5463 5468 5475 5482 5488 5493 5499 5504 5509 5513 5518 5523 5527 5531 5536 5544 5556 5568 5581 5592 5603 5612 5619 5625 5628 5629 5628 5624 5620 5617 5615 5614
5488 5480 5471 5464 5459 5455 5452 5452 5453 5454 5457 5462 5468 5473 5479 5484 5490 5496 5501 5506 5511 5515 5518 5522 5525 5530 5537 5549 5561 5574 5587 5599 5608 5614 5618 5619 5619 5618 5616 5614 5612 5609 5605
5491 5482 5474 5468 5462 5459 5456 5455 5456 5457 5459 5463 5468 5473 5477 5483 5490 5494 5499 5504 5509 5513 5515 5517 5521 5526 5534 5546 5558 5570 5581 5592 5600 5605 5609 5611 5612 5611 5609 5608 5606 5604 5603
5494 5486 5478 5471 5466 5462 5460 5459 5459 5460 5462 5464 5468 5472 5478 5483 5488 5493 5497 5501 5504 5508 5511 5515 5519 5523 5532 5544 5556 5567 5577 5588 5595 5600 5604 5606 5606 5605 5602 5600 5600 5600 5599
5496 5489 5483 5476 5470 5466 5463 5462 5462 5463 5464 5465 5468 5472 5477 5482 5487 5491 5495 5498 5501 5504 5509 5513 5517 5523 5531 5542 5554 5564 5575 5583 5589 5594 5597 5599 5599 5598 5597 5596 5595 5595 5594
5501 5494 5488 5481 5475 5471 5468 5466 5465 5466 5468 5468 5469 5471 5476 5481 5485 5489 5492 5496 5500 5503 5508 5512 5516 5523 5531 5542 5552 5562 5570 5576 5583 5587 5590 5592 5593 5593 5592 5591 5591 5591 5590
5507 5500 5494 5488 5482 5477 5473 5471 5470 5470 5470 5470 5471 5472 5474 5478 5482 5485 5490 5498 5502 5505 5508 5511 5517 5524 5532 5541 5550 5559 5567 5573 5578 5582 5584 5586 5587 5588 5587 5587 5587 5583 5585
5514 5508 5503 5496 5489 5485 5481 5478 5476 5475 5474 5473 5474 5475 5476 5480 5484 5486 5491 5497 5502 5506 5510 5514 5519 5526 5533 5540 5548 5556 5563 5569 5573 5577 5579 5580 5581 5582 5582 5582 5582 5581 5581
5522 5515 5510 5502 5497 5492 5488 5485 5482 5480 5479 5478 5477 5476 5478 5482 5485 5488 5492 5497 5502 5508 5512 5516 5521 5526 5533 5540 5547 5555 5560 5565 5569 5573 5574 5575 5576 5577 5577 5577 5576 5577 5576
5528 5522 5516 5509 5504 5500 5496 5492 5488 5486 5484 5483 5481 5481 5480 5484 5486 5489 5494 5498 5504 5509 5514 5518 5523 5529 5535 5541 5548 5554 5559 5562 5566 5569 5571 5571 5572 5573 5573 5572 5572 5572 5571
5535 5530 5524 5518 5513 5508 5504 5500 5496 5492 5490 5488 5487 5486 5487 5488 5491 5493 5497 5501 5506 5511 5516 5521 5527 5532 5537 5543 5549 5555 5559 5563 5566 5568 5569 5569 5569 5569 5569 5568 5567 5567 5567
5541 5536 5532 5526 5521 5517 5513 5508 5504 5500 5497 5495 5493 5493 5493 5494 5496 5499 5502 5506 5510 5515 5520 5526 5532 5537 5542 5546 5551 5556 5561 5564 5566 5567 5568 5568 5567 5566 5566 5565 5565 5565 5565
5545 5542 5538 5533 5529 5524 5521 5516 5512 5509 5505 5503 5501 5500 5500 5501 5502 5505 5508 5511 5516 5521 5526 5532 5537 5543 5547 5551 5555 5559 5561 5563 5565 5566 5566 5566 5565 5565 5564 5564 5563 5563 5563
5547 5546 5543 5539 5536 5532 5528 5524 5520 5517 5513 5511 5510 5508 5508 5508 5510 5512 5514 5517 5522 5527 5532 5538 5543 5547 5551 5555 5558 5559 5560 5562 5563 5564 5565 5565 5564 5564 5563 5563 5562 5562 5562